Location: Lane
(33.5226°N, 79.8788°W)
Time: 11:34:27
(UTC+00:00)

Tiros 1 despin weight - Pass Details

Date: 04 October 2022
Orbit: 590 x 637 km, 48.2° (Epoch: 25 November)

Event Time Altitude Azimuth Distance (km) Brightness Sun altitude
Rises 20:13:35 0° 241° (WSW) 2,817 ? 32.0°
Reaches altitude 10° 20:15:53 10° 246° (WSW) 1,923 ? 31.6°
Maximum altitude 20:20:14 57° 325° (NW) 710 ? 30.8°
Drops below altitude 10° 20:24:39 10° 44° (NE) 1,958 ? 30.0°
Sets 20:27:00 0° 49° (NE) 2,873 ? 29.5°
